Preview of NWS' New Version of Forecast
This preview is not operational and should not be used for support decisions.

Regional Weather Roundup (RWR)

Issued by Key West, FL (KEY)

                            
000
ASUS42 KKEY 152111
RWRKEY

FLORIDA KEYS REGIONAL WEATHER ROUNDUP
NATIONAL WEATHER SERVICE KEY WEST FLORIDA
500 PM EDT MON OCT 15 2018

...SOUTH FLORIDA AND THE KEYS...
  
CITY           SKY/WX    TMP DP  RH WIND       PRES   REMARKS
FORT MYERS     PTSUNNY   91  72  53 E10       30.00S HX  98           
SW REGIONAL AP PTSUNNY   92  73  53 E12       30.01R HX 100           
NAPLES         PTSUNNY   89  72  56 E14G21    30.00R HX  96           
MIAMI          FAIR      84  75  74 E16       30.03S HX  92           
WEST KENDALL   FAIR      86  75  69 E15       30.02S HX  95           
HOMESTEAD      FAIR      86  75  70 E14       30.02R HX  95           
MARATHON       FAIR      86  76  71 E15G21    30.00R HX  96           
KEY WEST INTL  FAIR      88  77  69 E16G22    29.99S HX 100           

...INTERNATIONAL WEATHER...
  
CITY           SKY/WX    TMP DP  RH WIND       PRES   REMARKS
NASSAU BAHAMAS NOT AVBL                                               
HAVANA CUBA    NOT AVBL                                               
VARADERO CUBA  NOT AVBL                                               
CANCUN MEXICO  MOSUNNY   84  75  74 E12       29.88F HX  92           
COZUMEL MEXICO PTSUNNY   86  77  74 E10       29.86S HX  97           

ADJACENT COASTAL WATERS...
  
STATION/POSITION TIME  SKY/WX   TEMP    WIND        PRES    WAVE
                                AIR SEA DIR/SP/G            HT/PER
                 (UTC)          (F)     (DEG/KT/KT) (MB)    (FT/S)
PULASKI SHOAL LI 2100            84      90/ 13/ 15 1015.5R
SAND KEY         2050            83                 1015.3R
SOMBRERO KEY     2050            83      60/ 17/ 20 1015.1R
LONG KEY         2100            84 86  100/ 17/ 19 1015.9R
MOLASSES REEF    2100            84 84   90/ 16/ 17 1016.3S
FOWEY ROCKS      2100            83 83   70/ 18/ 20 1017.4R
Buoy 42097       2030               83                N/A     3/ 5

$$